Time,TemperatureF,DewpointF,PressureIn,WindDirection,WindDirectionDegrees,WindSpeedMPH,WindSpeedGustMPH,Humidity,HourlyPrecipIn,Conditions,Clouds,dailyrainin,SoftwareType,DateUTC
2013-07-02 00:00:00,72.6,70.8,30.02,SSE,148,0.0,7.0,94,0.00,,,0.78,VWS V14.01,2013-07-02 04:00:00,
2013-07-02 00:01:00,72.6,70.8,30.02,SSE,148,2.0,2.0,94,0.00,,,0.00,VWS V14.01,2013-07-02 04:01:00,
2013-07-02 00:06:00,72.6,70.8,30.02,SE,131,0.0,7.0,94,0.00,,,0.00,VWS V14.01,2013-07-02 04:06:00,
2013-07-02 00:10:00,72.6,70.8,30.02,SE,131,0.0,7.0,94,0.00,,,0.00,VWS V14.01,2013-07-02 04:10:00,
2013-07-02 00:11:00,72.6,70.8,30.02,SE,131,2.0,2.0,94,0.00,,,0.00,VWS V14.01,2013-07-02 04:11:00,
2013-07-02 00:16:00,72.6,70.8,30.02,SE,139,0.0,8.0,94,0.00,,,0.00,VWS V14.01,2013-07-02 04:16:00,
2013-07-02 00:20:00,72.6,70.8,30.02,SE,139,0.0,8.0,94,0.00,,,0.00,VWS V14.01,2013-07-02 04:20:00,
2013-07-02 00:21:00,72.6,70.8,30.02,SE,139,0.0,0.0,94,0.00,,,0.00,VWS V14.01,2013-07-02 04:21:00,
2013-07-02 00:26:00,72.5,70.7,30.02,SE,139,0.0,0.0,94,0.00,,,0.00,VWS V14.01,2013-07-02 04:26:00,
2013-07-02 00:30:00,72.6,70.8,30.02,SE,139,0.0,1.0,94,0.00,,,0.00,VWS V14.01,2013-07-02 04:30:00,
2013-07-02 00:31:00,72.5,70.7,30.02,SE,139,0.0,1.0,94,0.00,,,0.00,VWS V14.01,2013-07-02 04:31:00,
2013-07-02 00:36:00,72.6,70.8,30.02,SE,143,2.0,5.0,94,0.01,,,0.01,VWS V14.01,2013-07-02 04:36:00,
2013-07-02 00:40:00,72.6,70.8,30.02,SSE,148,4.0,7.0,94,0.03,,,0.03,VWS V14.01,2013-07-02 04:40:00,
2013-07-02 00:41:00,72.6,70.8,30.02,SSE,147,0.0,4.0,94,0.03,,,0.03,VWS V14.01,2013-07-02 04:41:00,
2013-07-02 00:46:00,72.6,70.8,30.03,SE,139,2.0,4.0,94,0.03,,,0.03,VWS V14.01,2013-07-02 04:46:00,
2013-07-02 00:50:00,72.6,70.8,30.03,SE,139,0.0,4.0,94,0.03,,,0.03,VWS V14.01,2013-07-02 04:50:00,
2013-07-02 00:51:00,72.5,70.7,30.03,SE,139,0.0,0.0,94,0.03,,,0.03,VWS V14.01,2013-07-02 04:51:00,
2013-07-02 00:56:00,72.6,70.8,30.03,SE,139,1.0,1.0,94,0.03,,,0.03,VWS V14.01,2013-07-02 04:56:00,
2013-07-02 01:00:00,72.5,70.7,30.02,SSE,153,0.0,8.0,94,0.03,,,0.03,VWS V14.01,2013-07-02 05:00:00,
2013-07-02 01:01:00,72.5,70.7,30.02,SSE,153,0.0,0.0,94,0.03,,,0.03,VWS V14.01,2013-07-02 05:01:00,
2013-07-02 01:06:00,72.5,71.0,30.02,SE,132,3.0,5.0,95,0.03,,,0.03,VWS V14.01,2013-07-02 05:06:00,
2013-07-02 01:10:00,72.4,70.9,30.02,SE,132,0.0,5.0,95,0.03,,,0.03,VWS V14.01,2013-07-02 05:10:00,
2013-07-02 01:11:00,72.4,70.9,30.02,SE,132,1.0,1.0,95,0.03,,,0.03,VWS V14.01,2013-07-02 05:11:00,
2013-07-02 01:16:00,72.4,70.9,30.03,ENE,63,0.0,4.0,95,0.03,,,0.03,VWS V14.01,2013-07-02 05:16:00,
2013-07-02 01:20:00,72.4,70.9,30.03,ENE,63,1.0,4.0,95,0.03,,,0.03,VWS V14.01,2013-07-02 05:20:00,
2013-07-02 01:21:00,72.4,70.9,30.03,ENE,63,0.0,1.0,95,0.03,,,0.03,VWS V14.01,2013-07-02 05:21:00,
2013-07-02 01:26:00,72.4,70.9,30.03,ENE,69,0.0,2.0,95,0.03,,,0.03,VWS V14.01,2013-07-02 05:26:00,
2013-07-02 01:30:00,72.4,70.9,30.02,ENE,69,0.0,2.0,95,0.03,,,0.03,VWS V14.01,2013-07-02 05:30:00,
2013-07-02 01:31:00,72.3,70.8,30.02,ENE,69,0.0,0.0,95,0.03,,,0.03,VWS V14.01,2013-07-02 05:31:00,
2013-07-02 01:36:00,72.3,70.8,30.02,ENE,71,0.0,2.0,95,0.03,,,0.03,VWS V14.01,2013-07-02 05:36:00,
2013-07-02 01:44:00,72.3,70.8,30.02,SE,132,0.0,7.0,95,0.03,,,0.03,VWS V14.01,2013-07-02 05:44:00,
2013-07-02 01:49:00,72.3,70.8,30.02,SE,144,0.0,7.0,95,0.03,,,0.03,VWS V14.01,2013-07-02 05:49:00,
2013-07-02 01:50:00,72.2,70.7,30.02,SE,144,0.0,7.0,95,0.03,,,0.03,VWS V14.01,2013-07-02 05:50:00,
2013-07-02 01:54:00,72.2,70.7,30.02,SE,146,0.0,3.0,95,0.00,,,0.03,VWS V14.01,2013-07-02 05:54:00,
2013-07-02 01:59:00,72.2,70.7,30.02,SSE,150,0.0,3.0,95,0.00,,,0.03,VWS V14.01,2013-07-02 05:59:00,
2013-07-02 02:00:00,72.2,70.7,30.02,SSE,150,0.0,3.0,95,0.00,,,0.03,VWS V14.01,2013-07-02 06:00:00,
2013-07-02 02:04:00,72.2,70.7,30.02,SSE,150,3.0,3.0,95,0.00,,,0.03,VWS V14.01,2013-07-02 06:04:00,
2013-07-02 02:09:00,72.2,70.7,30.02,SSE,150,1.0,3.0,95,0.00,,,0.03,VWS V14.01,2013-07-02 06:09:00,
2013-07-02 02:10:00,72.2,70.7,30.02,SSE,150,0.0,3.0,95,0.00,,,0.03,VWS V14.01,2013-07-02 06:10:00,
2013-07-02 02:14:00,72.1,70.6,30.02,SSE,150,0.0,0.0,95,0.00,,,0.03,VWS V14.01,2013-07-02 06:14:00,
2013-07-02 02:19:00,72.1,70.6,30.02,ESE,121,0.0,3.0,95,0.00,,,0.03,VWS V14.01,2013-07-02 06:19:00,
2013-07-02 02:20:00,72.1,70.6,30.02,ESE,121,0.0,3.0,95,0.00,,,0.03,VWS V14.01,2013-07-02 06:20:00,
2013-07-02 02:24:00,72.1,70.6,30.02,ESE,121,0.0,0.0,95,0.00,,,0.03,VWS V14.01,2013-07-02 06:24:00,
2013-07-02 02:29:00,72.1,70.6,30.02,ESE,121,0.0,1.0,95,0.00,,,0.03,VWS V14.01,2013-07-02 06:29:00,
2013-07-02 02:30:00,72.1,70.6,30.02,ESE,121,0.0,1.0,95,0.00,,,0.03,VWS V14.01,2013-07-02 06:30:00,
2013-07-02 02:34:00,72.1,70.6,30.02,ESE,121,0.0,1.0,95,0.00,,,0.03,VWS V14.01,2013-07-02 06:34:00,
2013-07-02 02:39:00,72.1,70.6,30.02,ESE,121,0.0,1.0,95,0.00,,,0.03,VWS V14.01,2013-07-02 06:39:00,
2013-07-02 02:40:00,72.1,70.6,30.02,ESE,121,0.0,1.0,95,0.00,,,0.03,VWS V14.01,2013-07-02 06:40:00,
2013-07-02 02:44:00,72.1,70.6,30.02,ESE,119,3.0,3.0,95,0.00,,,0.03,VWS V14.01,2013-07-02 06:44:00,
2013-07-02 02:49:00,72.0,70.5,30.02,ESE,119,0.0,3.0,95,0.00,,,0.03,VWS V14.01,2013-07-02 06:49:00,
2013-07-02 02:50:00,72.0,70.5,30.02,ESE,119,0.0,3.0,95,0.00,,,0.03,VWS V14.01,2013-07-02 06:50:00,
2013-07-02 02:54:00,72.0,70.5,30.02,ESE,119,0.0,0.0,95,0.00,,,0.03,VWS V14.01,2013-07-02 06:54:00,
2013-07-02 02:59:00,72.0,70.5,30.02,ESE,119,0.0,2.0,95,0.00,,,0.03,VWS V14.01,2013-07-02 06:59:00,
2013-07-02 03:00:00,72.0,70.5,30.02,ESE,119,0.0,2.0,95,0.00,,,0.03,VWS V14.01,2013-07-02 07:00:00,
2013-07-02 03:04:00,72.0,70.5,30.02,SE,129,1.0,9.0,95,0.00,,,0.03,VWS V14.01,2013-07-02 07:04:00,
2013-07-02 03:09:00,72.0,70.5,30.02,SE,129,1.0,9.0,95,0.00,,,0.03,VWS V14.01,2013-07-02 07:09:00,
2013-07-02 03:10:00,72.0,70.5,30.02,SE,128,0.0,9.0,95,0.00,,,0.03,VWS V14.01,2013-07-02 07:10:00,
2013-07-02 03:14:00,71.9,70.4,30.02,SE,129,0.0,2.0,95,0.00,,,0.03,VWS V14.01,2013-07-02 07:14:00,
2013-07-02 03:19:00,72.0,70.5,30.02,SSE,155,0.0,7.0,95,0.00,,,0.03,VWS V14.01,2013-07-02 07:19:00,
2013-07-02 03:20:00,71.9,70.4,30.02,SSE,148,2.0,7.0,95,0.00,,,0.03,VWS V14.01,2013-07-02 07:20:00,
2013-07-02 03:24:00,71.9,70.4,30.02,SSE,148,0.0,2.0,95,0.00,,,0.03,VWS V14.01,2013-07-02 07:24:00,
2013-07-02 03:29:00,71.9,70.4,30.02,SE,146,0.0,4.0,95,0.00,,,0.03,VWS V14.01,2013-07-02 07:29:00,
2013-07-02 03:30:00,71.9,70.4,30.02,SSE,147,0.0,4.0,95,0.00,,,0.03,VWS V14.01,2013-07-02 07:30:00,
2013-07-02 03:34:00,71.9,70.4,30.02,SE,146,0.0,1.0,95,0.00,,,0.03,VWS V14.01,2013-07-02 07:34:00,
2013-07-02 03:39:00,71.9,70.4,30.02,SE,146,1.0,2.0,95,0.00,,,0.03,VWS V14.01,2013-07-02 07:39:00,
2013-07-02 03:40:00,71.9,70.4,30.02,NW,306,0.0,2.0,95,0.00,,,0.03,VWS V14.01,2013-07-02 07:40:00,
2013-07-02 03:44:00,71.9,70.4,30.03,NW,306,0.0,0.0,95,0.00,,,0.03,VWS V14.01,2013-07-02 07:44:00,
2013-07-02 03:49:00,71.9,70.7,30.03,WNW,285,0.0,2.0,96,0.00,,,0.03,VWS V14.01,2013-07-02 07:49:00,
2013-07-02 03:50:00,71.9,70.7,30.03,WNW,285,0.0,2.0,96,0.00,,,0.03,VWS V14.01,2013-07-02 07:50:00,
2013-07-02 03:54:00,71.9,70.7,30.03,WNW,284,0.0,1.0,96,0.00,,,0.03,VWS V14.01,2013-07-02 07:54:00,
2013-07-02 03:59:00,71.9,70.7,30.03,WNW,284,0.0,1.0,96,0.00,,,0.03,VWS V14.01,2013-07-02 07:59:00,
2013-07-02 04:00:00,71.9,70.7,30.03,WNW,284,0.0,1.0,96,0.00,,,0.03,VWS V14.01,2013-07-02 08:00:00,
2013-07-02 04:04:00,71.9,70.7,30.03,SE,126,0.0,3.0,96,0.00,,,0.03,VWS V14.01,2013-07-02 08:04:00,
2013-07-02 04:09:00,71.9,70.7,30.03,SE,125,0.0,3.0,96,0.00,,,0.03,VWS V14.01,2013-07-02 08:09:00,
2013-07-02 04:10:00,71.9,70.7,30.03,SE,125,0.0,3.0,96,0.00,,,0.03,VWS V14.01,2013-07-02 08:10:00,
2013-07-02 04:14:00,71.9,70.7,30.03,SE,126,3.0,3.0,96,0.00,,,0.03,VWS V14.01,2013-07-02 08:14:00,
2013-07-02 04:19:00,71.9,70.7,30.03,SE,126,0.0,3.0,96,0.00,,,0.03,VWS V14.01,2013-07-02 08:19:00,
2013-07-02 04:20:00,71.9,70.7,30.03,SE,126,0.0,3.0,96,0.00,,,0.03,VWS V14.01,2013-07-02 08:20:00,
2013-07-02 04:24:00,71.9,70.7,30.03,SE,134,0.0,4.0,96,0.00,,,0.03,VWS V14.01,2013-07-02 08:24:00,
2013-07-02 04:29:00,71.9,70.7,30.04,SE,134,0.0,4.0,96,0.00,,,0.03,VWS V14.01,2013-07-02 08:29:00,
2013-07-02 04:30:00,71.9,70.7,30.04,SE,134,0.0,4.0,96,0.00,,,0.03,VWS V14.01,2013-07-02 08:30:00,
2013-07-02 04:34:00,71.9,70.7,30.04,SE,134,0.0,2.0,96,0.00,,,0.03,VWS V14.01,2013-07-02 08:34:00,
2013-07-02 04:39:00,71.9,70.7,30.04,SE,134,0.0,3.0,96,0.00,,,0.03,VWS V14.01,2013-07-02 08:39:00,
2013-07-02 04:40:00,71.9,70.7,30.04,SE,134,0.0,3.0,96,0.00,,,0.03,VWS V14.01,2013-07-02 08:40:00,
2013-07-02 04:44:00,71.9,70.7,30.04,SE,134,0.0,2.0,96,0.00,,,0.03,VWS V14.01,2013-07-02 08:44:00,
2013-07-02 04:49:00,71.9,70.7,30.04,SE,134,1.0,4.0,96,0.00,,,0.03,VWS V14.01,2013-07-02 08:49:00,
2013-07-02 04:50:00,71.8,70.6,30.04,SE,134,0.0,4.0,96,0.00,,,0.03,VWS V14.01,2013-07-02 08:50:00,
2013-07-02 04:54:00,71.8,70.6,30.04,SE,140,0.0,8.0,96,0.00,,,0.03,VWS V14.01,2013-07-02 08:54:00,
2013-07-02 04:59:00,71.8,70.6,30.04,SE,138,0.0,8.0,96,0.00,,,0.03,VWS V14.01,2013-07-02 08:59:00,
2013-07-02 05:00:00,71.9,70.7,30.04,SE,138,0.0,8.0,96,0.00,,,0.03,VWS V14.01,2013-07-02 09:00:00,
2013-07-02 05:04:00,71.8,70.6,30.04,SE,138,0.0,2.0,96,0.00,,,0.03,VWS V14.01,2013-07-02 09:04:00,
2013-07-02 05:09:00,71.8,70.6,30.04,SE,138,0.0,2.0,96,0.00,,,0.03,VWS V14.01,2013-07-02 09:09:00,
2013-07-02 05:10:00,71.8,70.6,30.04,SE,138,0.0,2.0,96,0.00,,,0.03,VWS V14.01,2013-07-02 09:10:00,
2013-07-02 05:14:00,71.8,70.6,30.04,SE,138,0.0,0.0,96,0.00,,,0.03,VWS V14.01,2013-07-02 09:14:00,
2013-07-02 05:19:00,71.8,70.6,30.05,SE,138,0.0,3.0,96,0.00,,,0.03,VWS V14.01,2013-07-02 09:19:00,
2013-07-02 05:20:00,71.8,70.6,30.05,SE,138,0.0,3.0,96,0.00,,,0.03,VWS V14.01,2013-07-02 09:20:00,
2013-07-02 05:24:00,71.8,70.6,30.05,SE,138,0.0,0.0,96,0.00,,,0.03,VWS V14.01,2013-07-02 09:24:00,
2013-07-02 05:29:00,71.8,70.6,30.05,SE,138,0.0,0.0,96,0.00,,,0.03,VWS V14.01,2013-07-02 09:29:00,
2013-07-02 05:30:00,71.8,70.6,30.05,SE,138,0.0,0.0,96,0.00,,,0.03,VWS V14.01,2013-07-02 09:30:00,
2013-07-02 05:34:00,71.8,70.6,30.05,SE,146,0.0,4.0,96,0.00,,,0.03,VWS V14.01,2013-07-02 09:34:00,
2013-07-02 05:39:00,71.7,70.5,30.05,SE,132,0.0,4.0,96,0.00,,,0.03,VWS V14.01,2013-07-02 09:39:00,
2013-07-02 05:40:00,71.7,70.5,30.05,SE,129,3.0,4.0,96,0.00,,,0.03,VWS V14.01,2013-07-02 09:40:00,
2013-07-02 05:44:00,71.7,70.5,30.05,SE,129,0.0,3.0,96,0.00,,,0.03,VWS V14.01,2013-07-02 09:44:00,
2013-07-02 05:49:00,71.7,70.5,30.05,WSW,244,0.0,4.0,96,0.00,,,0.03,VWS V14.01,2013-07-02 09:49:00,
2013-07-02 05:50:00,71.7,70.5,30.05,WSW,244,0.0,4.0,96,0.00,,,0.03,VWS V14.01,2013-07-02 09:50:00,
2013-07-02 05:54:00,71.7,70.5,30.05,WSW,244,0.0,1.0,96,0.00,,,0.03,VWS V14.01,2013-07-02 09:54:00,
2013-07-02 05:59:00,71.7,70.5,30.05,East,82,0.0,1.0,96,0.00,,,0.03,VWS V14.01,2013-07-02 09:59:00,
2013-07-02 06:00:00,71.7,70.5,30.06,East,82,0.0,1.0,96,0.00,,,0.03,VWS V14.01,2013-07-02 10:00:00,
2013-07-02 06:04:00,71.7,70.5,30.06,East,82,0.0,0.0,96,0.00,,,0.03,VWS V14.01,2013-07-02 10:04:00,
2013-07-02 06:09:00,71.7,70.5,30.06,East,82,0.0,1.0,96,0.00,,,0.03,VWS V14.01,2013-07-02 10:09:00,
2013-07-02 06:10:00,71.7,70.5,30.06,East,82,0.0,1.0,96,0.00,,,0.03,VWS V14.01,2013-07-02 10:10:00,
2013-07-02 06:14:00,71.7,70.5,30.06,East,82,0.0,0.0,96,0.00,,,0.03,VWS V14.01,2013-07-02 10:14:00,
2013-07-02 06:19:00,71.7,70.5,30.06,WSW,238,0.0,1.0,96,0.00,,,0.03,VWS V14.01,2013-07-02 10:19:00,
2013-07-02 06:20:00,71.7,70.5,30.06,WSW,238,0.0,1.0,96,0.00,,,0.03,VWS V14.01,2013-07-02 10:20:00,
2013-07-02 06:24:00,71.7,70.5,30.06,WNW,302,0.0,3.0,96,0.00,,,0.03,VWS V14.01,2013-07-02 10:24:00,
2013-07-02 06:29:00,71.7,70.5,30.06,South,190,0.0,3.0,96,0.00,,,0.03,VWS V14.01,2013-07-02 10:29:00,
2013-07-02 06:30:00,71.7,70.5,30.07,South,190,0.0,3.0,96,0.00,,,0.03,VWS V14.01,2013-07-02 10:30:00,
2013-07-02 06:34:00,71.7,70.5,30.07,South,190,0.0,1.0,96,0.00,,,0.03,VWS V14.01,2013-07-02 10:34:00,
2013-07-02 06:39:00,71.7,70.5,30.07,South,190,0.0,1.0,96,0.00,,,0.03,VWS V14.01,2013-07-02 10:39:00,
2013-07-02 06:40:00,71.7,70.5,30.07,South,190,0.0,1.0,96,0.00,,,0.03,VWS V14.01,2013-07-02 10:40:00,
2013-07-02 06:44:00,71.8,70.6,30.07,South,190,0.0,0.0,96,0.00,,,0.03,VWS V14.01,2013-07-02 10:44:00,
2013-07-02 06:49:00,71.8,70.6,30.07,South,190,0.0,1.0,96,0.00,,,0.03,VWS V14.01,2013-07-02 10:49:00,
2013-07-02 06:50:00,71.8,70.6,30.07,South,190,0.0,1.0,96,0.00,,,0.03,VWS V14.01,2013-07-02 10:50:00,
2013-07-02 06:54:00,71.9,70.7,30.07,South,190,0.0,0.0,96,0.00,,,0.03,VWS V14.01,2013-07-02 10:54:00,
2013-07-02 06:59:00,71.9,70.7,30.07,South,190,0.0,2.0,96,0.00,,,0.03,VWS V14.01,2013-07-02 10:59:00,
2013-07-02 07:00:00,71.9,70.7,30.07,South,190,0.0,2.0,96,0.00,,,0.03,VWS V14.01,2013-07-02 11:00:00,
2013-07-02 07:04:00,72.0,70.8,30.07,NE,40,0.0,2.0,96,0.00,,,0.03,VWS V14.01,2013-07-02 11:04:00,
2013-07-02 07:09:00,72.0,70.8,30.07,East,101,0.0,2.0,96,0.00,,,0.03,VWS V14.01,2013-07-02 11:09:00,
2013-07-02 07:10:00,72.0,70.8,30.07,East,101,2.0,2.0,96,0.00,,,0.03,VWS V14.01,2013-07-02 11:10:00,
2013-07-02 07:14:00,72.1,70.9,30.07,East,101,0.0,2.0,96,0.00,,,0.03,VWS V14.01,2013-07-02 11:14:00,
2013-07-02 07:19:00,72.2,71.0,30.08,ESE,119,0.0,2.0,96,0.00,,,0.03,VWS V14.01,2013-07-02 11:19:00,
2013-07-02 07:20:00,72.2,71.0,30.08,ESE,122,3.0,3.0,96,0.00,,,0.03,VWS V14.01,2013-07-02 11:20:00,
2013-07-02 07:24:00,72.3,71.1,30.08,ESE,123,0.0,3.0,96,0.00,,,0.03,VWS V14.01,2013-07-02 11:24:00,
2013-07-02 07:29:00,72.4,71.2,30.08,SSE,150,0.0,3.0,96,0.00,,,0.03,VWS V14.01,2013-07-02 11:29:00,
2013-07-02 07:30:00,72.4,71.2,30.08,SSE,149,0.0,3.0,96,0.00,,,0.03,VWS V14.01,2013-07-02 11:30:00,
2013-07-02 07:34:00,72.4,71.2,30.08,SSE,150,0.0,0.0,96,0.00,,,0.03,VWS V14.01,2013-07-02 11:34:00,
2013-07-02 07:39:00,72.4,71.2,30.08,SSE,150,0.0,2.0,96,0.00,,,0.03,VWS V14.01,2013-07-02 11:39:00,
2013-07-02 07:40:00,72.4,71.2,30.08,SSE,150,0.0,2.0,96,0.00,,,0.03,VWS V14.01,2013-07-02 11:40:00,
2013-07-02 07:44:00,72.4,71.2,30.08,SSE,150,0.0,0.0,96,0.00,,,0.03,VWS V14.01,2013-07-02 11:44:00,
2013-07-02 07:49:00,72.4,71.2,30.09,SSE,150,1.0,1.0,96,0.00,,,0.03,VWS V14.01,2013-07-02 11:49:00,
2013-07-02 07:50:00,72.4,71.2,30.09,SSE,150,0.0,1.0,96,0.00,,,0.03,VWS V14.01,2013-07-02 11:50:00,
2013-07-02 07:54:00,72.4,71.2,30.09,SSE,163,0.0,3.0,96,0.00,,,0.03,VWS V14.01,2013-07-02 11:54:00,
2013-07-02 07:59:00,72.4,71.2,30.09,SSE,163,0.0,3.0,96,0.00,,,0.03,VWS V14.01,2013-07-02 11:59:00,
2013-07-02 08:00:00,72.4,71.2,30.09,SSE,163,0.0,3.0,96,0.00,,,0.03,VWS V14.01,2013-07-02 12:00:00,
2013-07-02 08:04:00,72.4,71.2,30.09,SSE,163,0.0,1.0,96,0.00,,,0.03,VWS V14.01,2013-07-02 12:04:00,
2013-07-02 08:09:00,72.4,71.2,30.09,SSE,163,0.0,1.0,96,0.00,,,0.03,VWS V14.01,2013-07-02 12:09:00,
2013-07-02 08:10:00,72.4,71.2,30.09,SSE,163,0.0,1.0,96,0.00,,,0.03,VWS V14.01,2013-07-02 12:10:00,
2013-07-02 08:14:00,72.5,71.3,30.09,SSE,163,0.0,0.0,96,0.00,,,0.03,VWS V14.01,2013-07-02 12:14:00,
2013-07-02 08:19:00,72.5,71.3,30.09,SSE,163,0.0,2.0,96,0.00,,,0.03,VWS V14.01,2013-07-02 12:19:00,
2013-07-02 08:20:00,72.5,71.3,30.09,SSE,163,0.0,2.0,96,0.00,,,0.03,VWS V14.01,2013-07-02 12:20:00,
2013-07-02 08:24:00,72.6,71.4,30.09,SSE,163,0.0,1.0,96,0.00,,,0.03,VWS V14.01,2013-07-02 12:24:00,
2013-07-02 08:29:00,72.6,71.4,30.09,SSE,163,0.0,2.0,96,0.00,,,0.03,VWS V14.01,2013-07-02 12:29:00,
2013-07-02 08:30:00,72.6,71.4,30.09,SSE,163,0.0,2.0,96,0.00,,,0.03,VWS V14.01,2013-07-02 12:30:00,
2013-07-02 08:34:00,72.7,71.5,30.09,SSE,163,0.0,0.0,96,0.00,,,0.03,VWS V14.01,2013-07-02 12:34:00,
2013-07-02 08:39:00,72.6,71.4,30.09,SSE,163,0.0,2.0,96,0.00,,,0.03,VWS V14.01,2013-07-02 12:39:00,
2013-07-02 08:40:00,72.7,71.5,30.09,SSE,163,0.0,3.0,96,0.00,,,0.03,VWS V14.01,2013-07-02 12:40:00,
2013-07-02 08:44:00,72.7,71.5,30.09,SSE,163,0.0,0.0,96,0.00,,,0.03,VWS V14.01,2013-07-02 12:44:00,
2013-07-02 08:49:00,72.7,71.5,30.09,SSE,163,0.0,1.0,96,0.00,,,0.03,VWS V14.01,2013-07-02 12:49:00,
2013-07-02 08:50:00,72.8,71.6,30.09,SSE,163,0.0,1.0,96,0.00,,,0.03,VWS V14.01,2013-07-02 12:50:00,
2013-07-02 08:54:00,72.8,71.6,30.09,SSE,163,0.0,1.0,96,0.00,,,0.03,VWS V14.01,2013-07-02 12:54:00,
2013-07-02 08:59:00,72.8,71.6,30.09,SSE,163,0.0,3.0,96,0.00,,,0.03,VWS V14.01,2013-07-02 12:59:00,
2013-07-02 09:00:00,72.8,71.6,30.09,SSE,163,0.0,3.0,96,0.00,,,0.03,VWS V14.01,2013-07-02 13:00:00,
2013-07-02 09:04:00,72.8,71.3,30.09,SSE,163,0.0,1.0,95,0.00,,,0.03,VWS V14.01,2013-07-02 13:04:00,
2013-07-02 09:09:00,72.7,71.2,30.09,SSE,163,0.0,1.0,95,0.00,,,0.03,VWS V14.01,2013-07-02 13:09:00,
2013-07-02 09:10:00,72.7,71.2,30.09,SSE,163,0.0,1.0,95,0.00,,,0.03,VWS V14.01,2013-07-02 13:10:00,
2013-07-02 09:14:00,72.7,71.2,30.09,SSE,163,0.0,0.0,95,0.00,,,0.03,VWS V14.01,2013-07-02 13:14:00,
2013-07-02 09:19:00,72.7,71.2,30.09,WNW,300,1.0,3.0,95,0.00,,,0.03,VWS V14.01,2013-07-02 13:19:00,
2013-07-02 09:20:00,72.8,71.3,30.09,WNW,300,0.0,3.0,95,0.00,,,0.03,VWS V14.01,2013-07-02 13:20:00,
2013-07-02 09:24:00,72.7,71.2,30.09,NW,304,0.0,1.0,95,0.00,,,0.03,VWS V14.01,2013-07-02 13:24:00,
2013-07-02 09:29:00,72.8,71.3,30.09,West,261,0.0,2.0,95,0.00,,,0.03,VWS V14.01,2013-07-02 13:29:00,
2013-07-02 09:30:00,72.8,71.3,30.09,WSW,256,0.0,2.0,95,0.00,,,0.03,VWS V14.01,2013-07-02 13:30:00,
2013-07-02 09:34:00,72.8,71.3,30.09,WSW,255,0.0,1.0,95,0.00,,,0.03,VWS V14.01,2013-07-02 13:34:00,
2013-07-02 09:39:00,73.0,71.8,30.09,WSW,255,0.0,1.0,96,0.00,,,0.03,VWS V14.01,2013-07-02 13:39:00,
2013-07-02 09:40:00,73.0,71.8,30.09,WSW,255,0.0,1.0,96,0.00,,,0.03,VWS V14.01,2013-07-02 13:40:00,
2013-07-02 09:44:00,73.1,71.9,30.09,WSW,255,0.0,0.0,96,0.00,,,0.03,VWS V14.01,2013-07-02 13:44:00,
2013-07-02 09:49:00,73.1,71.6,30.09,ESE,123,0.0,4.0,95,0.00,,,0.03,VWS V14.01,2013-07-02 13:49:00,
2013-07-02 09:50:00,73.1,71.6,30.09,ESE,123,0.0,4.0,95,0.00,,,0.03,VWS V14.01,2013-07-02 13:50:00,
2013-07-02 09:54:00,73.1,71.6,30.09,ESE,123,0.0,1.0,95,0.00,,,0.03,VWS V14.01,2013-07-02 13:54:00,
2013-07-02 09:59:00,73.2,71.7,30.09,ESE,123,0.0,1.0,95,0.00,,,0.03,VWS V14.01,2013-07-02 13:59:00,
2013-07-02 10:00:00,73.3,71.8,30.09,ESE,123,0.0,1.0,95,0.00,,,0.03,VWS V14.01,2013-07-02 14:00:00,
2013-07-02 10:04:00,73.3,71.8,30.09,ESE,123,0.0,0.0,95,0.00,,,0.03,VWS V14.01,2013-07-02 14:04:00,
2013-07-02 10:09:00,73.3,71.8,30.09,SE,125,0.0,3.0,95,0.00,,,0.03,VWS V14.01,2013-07-02 14:09:00,
2013-07-02 10:10:00,73.4,71.9,30.09,SE,125,0.0,3.0,95,0.00,,,0.03,VWS V14.01,2013-07-02 14:10:00,
2013-07-02 10:14:00,73.5,72.0,30.09,SE,141,0.0,7.0,95,0.00,,,0.03,VWS V14.01,2013-07-02 14:14:00,
2013-07-02 10:19:00,73.7,72.2,30.09,SSE,150,0.0,7.0,95,0.00,,,0.03,VWS V14.01,2013-07-02 14:19:00,
2013-07-02 10:20:00,73.7,72.2,30.09,SE,145,3.0,7.0,95,0.00,,,0.03,VWS V14.01,2013-07-02 14:20:00,
2013-07-02 10:24:00,73.8,72.3,30.09,SE,145,1.0,3.0,95,0.00,,,0.03,VWS V14.01,2013-07-02 14:24:00,
2013-07-02 10:29:00,74.0,72.5,30.09,SE,141,0.0,4.0,95,0.00,,,0.03,VWS V14.01,2013-07-02 14:29:00,
2013-07-02 10:30:00,74.0,72.5,30.09,SE,141,0.0,4.0,95,0.00,,,0.03,VWS V14.01,2013-07-02 14:30:00,
2013-07-02 10:34:00,74.2,72.7,30.09,SE,137,0.0,6.0,95,0.00,,,0.03,VWS V14.01,2013-07-02 14:34:00,
2013-07-02 10:39:00,74.4,72.9,30.09,SE,137,0.0,6.0,95,0.00,,,0.03,VWS V14.01,2013-07-02 14:39:00,
2013-07-02 10:40:00,74.4,72.9,30.09,SE,137,0.0,6.0,95,0.00,,,0.03,VWS V14.01,2013-07-02 14:40:00,
2013-07-02 10:44:00,74.5,73.0,30.09,SE,137,1.0,2.0,95,0.00,,,0.03,VWS V14.01,2013-07-02 14:44:00,
2013-07-02 10:49:00,74.6,72.8,30.09,SE,137,0.0,2.0,94,0.00,,,0.03,VWS V14.01,2013-07-02 14:49:00,
2013-07-02 10:50:00,74.6,72.8,30.09,SE,134,0.0,6.0,94,0.00,,,0.03,VWS V14.01,2013-07-02 14:50:00,
2013-07-02 10:54:00,74.7,72.9,30.09,SE,134,0.0,2.0,94,0.00,,,0.03,VWS V14.01,2013-07-02 14:54:00,
2013-07-02 10:59:00,74.7,72.6,30.09,NW,307,0.0,2.0,93,0.00,,,0.03,VWS V14.01,2013-07-02 14:59:00,
2013-07-02 11:00:00,74.7,72.5,30.10,ESE,123,0.0,3.0,93,0.00,,,0.03,VWS V14.01,2013-07-02 15:00:00,
2013-07-02 11:04:00,74.8,72.6,30.10,SSE,153,0.0,4.0,93,0.00,,,0.03,VWS V14.01,2013-07-02 15:04:00,
2013-07-02 11:09:00,74.9,72.7,30.10,SSE,153,0.0,4.0,93,0.00,,,0.03,VWS V14.01,2013-07-02 15:09:00,
2013-07-02 11:10:00,75.0,72.8,30.10,SSE,153,0.0,4.0,93,0.00,,,0.03,VWS V14.01,2013-07-02 15:10:00,
2013-07-02 11:14:00,75.2,73.0,30.10,SE,126,0.0,5.0,93,0.00,,,0.03,VWS V14.01,2013-07-02 15:14:00,
2013-07-02 11:19:00,75.3,73.1,30.09,SE,126,1.0,5.0,93,0.00,,,0.03,VWS V14.01,2013-07-02 15:19:00,
2013-07-02 11:20:00,75.4,72.9,30.09,SE,142,1.0,5.0,92,0.00,,,0.03,VWS V14.01,2013-07-02 15:20:00,
2013-07-02 11:24:00,75.5,73.0,30.09,West,271,0.0,3.0,92,0.00,,,0.03,VWS V14.01,2013-07-02 15:24:00,
2013-07-02 11:29:00,75.7,73.2,30.09,WNW,292,3.0,6.0,92,0.00,,,0.03,VWS V14.01,2013-07-02 15:29:00,
2013-07-02 11:30:00,75.7,73.2,30.10,WNW,295,0.0,6.0,92,0.00,,,0.03,VWS V14.01,2013-07-02 15:30:00,
2013-07-02 11:34:00,75.7,72.9,30.10,SSE,148,3.0,8.0,91,0.00,,,0.03,VWS V14.01,2013-07-02 15:34:00,
2013-07-02 11:39:00,75.7,72.9,30.10,East,96,2.0,8.0,91,0.00,,,0.03,VWS V14.01,2013-07-02 15:39:00,
2013-07-02 11:40:00,75.8,73.0,30.10,ESE,113,0.0,8.0,91,0.00,,,0.03,VWS V14.01,2013-07-02 15:40:00,
2013-07-02 11:44:00,75.9,73.1,30.10,SE,138,4.0,4.0,91,0.00,,,0.03,VWS V14.01,2013-07-02 15:44:00,
2013-07-02 11:49:00,76.0,73.2,30.10,SSE,155,1.0,4.0,91,0.00,,,0.03,VWS V14.01,2013-07-02 15:49:00,
2013-07-02 11:50:00,76.0,73.2,30.10,SSE,155,0.0,4.0,91,0.00,,,0.03,VWS V14.01,2013-07-02 15:50:00,
2013-07-02 11:54:00,76.0,73.2,30.10,SSE,155,0.0,1.0,91,0.00,,,0.03,VWS V14.01,2013-07-02 15:54:00,
2013-07-02 11:59:00,76.1,73.0,30.10,SSE,155,0.0,1.0,90,0.01,,,0.04,VWS V14.01,2013-07-02 15:59:00,
2013-07-02 12:00:00,76.1,73.3,30.10,SSE,155,0.0,1.0,91,0.01,,,0.04,VWS V14.01,2013-07-02 16:00:00,
2013-07-02 12:04:00,76.1,73.3,30.10,SSE,155,0.0,0.0,91,0.01,,,0.04,VWS V14.01,2013-07-02 16:04:00,
2013-07-02 12:09:00,76.2,73.4,30.10,West,267,0.0,2.0,91,0.01,,,0.04,VWS V14.01,2013-07-02 16:09:00,
2013-07-02 12:10:00,76.2,73.4,30.10,West,267,0.0,2.0,91,0.01,,,0.04,VWS V14.01,2013-07-02 16:10:00,
2013-07-02 12:14:00,76.2,73.4,30.10,SE,144,0.0,3.0,91,0.01,,,0.04,VWS V14.01,2013-07-02 16:14:00,
2013-07-02 12:19:00,76.1,73.3,30.10,SE,142,0.0,3.0,91,0.01,,,0.04,VWS V14.01,2013-07-02 16:19:00,
2013-07-02 12:20:00,76.1,73.3,30.10,SE,142,0.0,3.0,91,0.01,,,0.04,VWS V14.01,2013-07-02 16:20:00,
2013-07-02 12:24:00,76.1,73.3,30.10,SE,142,0.0,1.0,91,0.01,,,0.04,VWS V14.01,2013-07-02 16:24:00,
2013-07-02 12:29:00,76.1,73.3,30.10,SE,143,0.0,3.0,91,0.01,,,0.04,VWS V14.01,2013-07-02 16:29:00,
2013-07-02 12:30:00,76.2,73.4,30.10,SE,144,0.0,3.0,91,0.01,,,0.04,VWS V14.01,2013-07-02 16:30:00,
2013-07-02 12:34:00,76.2,73.4,30.10,SE,144,0.0,0.0,91,0.01,,,0.04,VWS V14.01,2013-07-02 16:34:00,
2013-07-02 12:39:00,76.3,73.5,30.10,SE,144,0.0,4.0,91,0.01,,,0.04,VWS V14.01,2013-07-02 16:39:00,
2013-07-02 12:40:00,76.2,73.4,30.10,SE,144,0.0,4.0,91,0.01,,,0.04,VWS V14.01,2013-07-02 16:40:00,
2013-07-02 12:44:00,76.2,73.4,30.10,SE,143,0.0,4.0,91,0.02,,,0.05,VWS V14.01,2013-07-02 16:44:00,
2013-07-02 12:49:00,76.3,73.5,30.10,SE,128,0.0,4.0,91,0.02,,,0.05,VWS V14.01,2013-07-02 16:49:00,
2013-07-02 12:50:00,76.3,73.5,30.10,SE,128,0.0,4.0,91,0.02,,,0.05,VWS V14.01,2013-07-02 16:50:00,
2013-07-02 12:54:00,76.3,73.5,30.10,SE,132,0.0,3.0,91,0.02,,,0.05,VWS V14.01,2013-07-02 16:54:00,
2013-07-02 12:59:00,76.4,73.9,30.10,SE,132,0.0,3.0,92,0.02,,,0.05,VWS V14.01,2013-07-02 16:59:00,
2013-07-02 13:00:00,76.4,73.6,30.09,SE,132,0.0,4.0,91,0.02,,,0.05,VWS V14.01,2013-07-02 17:00:00,
2013-07-02 13:04:00,76.4,73.9,30.09,WNW,301,0.0,6.0,92,0.01,,,0.05,VWS V14.01,2013-07-02 17:04:00,
2013-07-02 13:09:00,76.5,73.7,30.09,NW,313,1.0,6.0,91,0.01,,,0.05,VWS V14.01,2013-07-02 17:09:00,
2013-07-02 13:10:00,76.4,73.6,30.09,WNW,302,0.0,6.0,91,0.01,,,0.05,VWS V14.01,2013-07-02 17:10:00,
2013-07-02 13:14:00,76.4,73.6,30.09,West,271,3.0,3.0,91,0.01,,,0.05,VWS V14.01,2013-07-02 17:14:00,
2013-07-02 13:19:00,76.4,73.6,30.09,NNE,16,2.0,3.0,91,0.01,,,0.05,VWS V14.01,2013-07-02 17:19:00,
2013-07-02 13:20:00,76.4,73.6,30.09,North,9,0.0,3.0,91,0.01,,,0.05,VWS V14.01,2013-07-02 17:20:00,
2013-07-02 13:24:00,76.5,73.7,30.09,NW,322,0.0,2.0,91,0.01,,,0.05,VWS V14.01,2013-07-02 17:24:00,
2013-07-02 13:29:00,76.6,73.8,30.09,SE,133,0.0,6.0,91,0.01,,,0.05,VWS V14.01,2013-07-02 17:29:00,
2013-07-02 13:30:00,76.7,73.9,30.09,SE,133,0.0,6.0,91,0.01,,,0.05,VWS V14.01,2013-07-02 17:30:00,
2013-07-02 13:34:00,76.8,74.0,30.09,SE,133,0.0,1.0,91,0.01,,,0.05,VWS V14.01,2013-07-02 17:34:00,
2013-07-02 13:39:00,76.9,73.8,30.09,SE,133,0.0,1.0,90,0.01,,,0.05,VWS V14.01,2013-07-02 17:39:00,
2013-07-02 13:40:00,77.0,73.8,30.09,SE,133,0.0,1.0,90,0.01,,,0.05,VWS V14.01,2013-07-02 17:40:00,
2013-07-02 13:44:00,77.1,73.6,30.09,NE,54,1.0,5.0,89,0.01,,,0.05,VWS V14.01,2013-07-02 17:44:00,
2013-07-02 13:49:00,77.3,73.8,30.09,SE,140,0.0,5.0,89,0.01,,,0.05,VWS V14.01,2013-07-02 17:49:00,
2013-07-02 13:50:00,77.3,73.8,30.09,SE,140,0.0,5.0,89,0.01,,,0.05,VWS V14.01,2013-07-02 17:50:00,
2013-07-02 13:54:00,77.5,74.0,30.09,SSW,192,0.0,2.0,89,0.00,,,0.05,VWS V14.01,2013-07-02 17:54:00,
2013-07-02 13:59:00,77.6,73.8,30.09,SSW,192,0.0,2.0,88,0.00,,,0.05,VWS V14.01,2013-07-02 17:59:00,
2013-07-02 14:00:00,77.7,74.2,30.09,South,191,0.0,2.0,89,0.00,,,0.05,VWS V14.01,2013-07-02 18:00:00,
2013-07-02 14:04:00,78.0,74.5,30.09,South,186,0.0,2.0,89,0.00,,,0.05,VWS V14.01,2013-07-02 18:04:00,
2013-07-02 14:09:00,78.3,74.5,30.09,South,188,0.0,2.0,88,0.00,,,0.05,VWS V14.01,2013-07-02 18:09:00,
2013-07-02 14:10:00,78.3,74.5,30.09,South,188,0.0,2.0,88,0.00,,,0.05,VWS V14.01,2013-07-02 18:10:00,
2013-07-02 14:14:00,78.4,74.2,30.09,SW,217,2.0,3.0,87,0.00,,,0.05,VWS V14.01,2013-07-02 18:14:00,
2013-07-02 14:19:00,78.4,73.9,30.09,WNW,298,0.0,4.0,86,0.00,,,0.05,VWS V14.01,2013-07-02 18:19:00,
2013-07-02 14:20:00,78.4,73.9,30.09,WNW,298,0.0,4.0,86,0.00,,,0.05,VWS V14.01,2013-07-02 18:20:00,
2013-07-02 14:24:00,78.5,74.0,30.09,WNW,298,0.0,2.0,86,0.00,,,0.05,VWS V14.01,2013-07-02 18:24:00,
2013-07-02 14:29:00,78.7,73.8,30.08,WNW,292,0.0,3.0,85,0.00,,,0.05,VWS V14.01,2013-07-02 18:29:00,
2013-07-02 14:30:00,78.8,73.9,30.08,WNW,292,0.0,3.0,85,0.00,,,0.05,VWS V14.01,2013-07-02 18:30:00,
2013-07-02 14:34:00,78.9,74.0,30.08,WNW,292,0.0,1.0,85,0.00,,,0.05,VWS V14.01,2013-07-02 18:34:00,
2013-07-02 14:39:00,79.3,74.4,30.08,WSW,241,0.0,6.0,85,0.00,,,0.05,VWS V14.01,2013-07-02 18:39:00,
2013-07-02 14:40:00,79.3,74.4,30.08,WSW,240,0.0,6.0,85,0.00,,,0.05,VWS V14.01,2013-07-02 18:40:00,
2013-07-02 14:44:00,79.4,74.2,30.08,WNW,291,2.0,2.0,84,0.00,,,0.05,VWS V14.01,2013-07-02 18:44:00,
2013-07-02 14:49:00,79.6,74.0,30.08,WNW,298,0.0,4.0,83,0.00,,,0.05,VWS V14.01,2013-07-02 18:49:00,
2013-07-02 14:50:00,79.6,73.6,30.08,WNW,296,0.0,4.0,82,0.00,,,0.05,VWS V14.01,2013-07-02 18:50:00,
2013-07-02 14:54:00,79.7,73.7,30.08,SSW,202,0.0,2.0,82,0.00,,,0.05,VWS V14.01,2013-07-02 18:54:00,
2013-07-02 14:59:00,79.9,74.3,30.08,WSW,253,3.0,4.0,83,0.00,,,0.05,VWS V14.01,2013-07-02 18:59:00,
2013-07-02 15:00:00,80.0,74.0,30.08,WSW,252,0.0,4.0,82,0.00,,,0.05,VWS V14.01,2013-07-02 19:00:00,
2013-07-02 15:04:00,80.0,73.7,30.08,SE,140,0.0,5.0,81,0.00,,,0.05,VWS V14.01,2013-07-02 19:04:00,
2013-07-02 15:09:00,80.1,74.1,30.08,SE,138,2.0,5.0,82,0.00,,,0.05,VWS V14.01,2013-07-02 19:09:00,
2013-07-02 15:10:00,80.1,73.8,30.08,SE,138,0.0,5.0,81,0.00,,,0.05,VWS V14.01,2013-07-02 19:10:00,
2013-07-02 15:14:00,80.1,73.8,30.08,SE,138,2.0,2.0,81,0.00,,,0.05,VWS V14.01,2013-07-02 19:14:00,
2013-07-02 15:19:00,80.0,73.7,30.08,WSW,254,0.0,5.0,81,0.00,,,0.05,VWS V14.01,2013-07-02 19:19:00,
2013-07-02 15:20:00,80.0,73.7,30.08,SW,215,0.0,5.0,81,0.00,,,0.05,VWS V14.01,2013-07-02 19:20:00,
2013-07-02 15:24:00,80.0,74.0,30.08,East,90,1.0,3.0,82,0.00,,,0.05,VWS V14.01,2013-07-02 19:24:00,
2013-07-02 15:29:00,80.0,74.0,30.08,East,93,0.0,3.0,82,0.00,,,0.05,VWS V14.01,2013-07-02 19:29:00,
2013-07-02 15:30:00,80.0,74.0,30.08,East,93,0.0,3.0,82,0.00,,,0.05,VWS V14.01,2013-07-02 19:30:00,
2013-07-02 15:34:00,80.1,74.5,30.08,East,93,0.0,2.0,83,0.00,,,0.05,VWS V14.01,2013-07-02 19:34:00,
2013-07-02 15:39:00,80.1,74.1,30.08,East,93,0.0,2.0,82,0.00,,,0.05,VWS V14.01,2013-07-02 19:39:00,
2013-07-02 15:40:00,80.2,74.2,30.08,East,93,0.0,2.0,82,0.00,,,0.05,VWS V14.01,2013-07-02 19:40:00,
2013-07-02 15:44:00,80.3,74.3,30.07,WNW,286,0.0,5.0,82,0.00,,,0.05,VWS V14.01,2013-07-02 19:44:00,
2013-07-02 15:49:00,80.4,74.0,30.07,SE,133,0.0,11.0,81,0.00,,,0.05,VWS V14.01,2013-07-02 19:49:00,
2013-07-02 15:50:00,80.4,74.0,30.07,West,269,1.0,11.0,81,0.00,,,0.05,VWS V14.01,2013-07-02 19:50:00,
2013-07-02 15:54:00,80.7,74.7,30.07,West,277,0.0,9.0,82,0.00,,,0.05,VWS V14.01,2013-07-02 19:54:00,
2013-07-02 15:59:00,80.9,74.5,30.07,NNE,24,0.0,9.0,81,0.00,,,0.05,VWS V14.01,2013-07-02 19:59:00,
2013-07-02 16:00:00,81.0,74.6,30.07,ENE,59,1.0,9.0,81,0.00,,,0.05,VWS V14.01,2013-07-02 20:00:00,
2013-07-02 16:04:00,81.2,74.4,30.07,NNW,338,0.0,2.0,80,0.00,,,0.05,VWS V14.01,2013-07-02 20:04:00,
2013-07-02 16:09:00,81.5,74.7,30.07,SE,142,2.0,2.0,80,0.00,,,0.05,VWS V14.01,2013-07-02 20:09:00,
2013-07-02 16:10:00,81.6,74.8,30.07,SE,142,0.0,2.0,80,0.00,,,0.05,VWS V14.01,2013-07-02 20:10:00,
2013-07-02 16:14:00,81.7,74.2,30.07,SSE,148,1.0,7.0,78,0.00,,,0.05,VWS V14.01,2013-07-02 20:14:00,
2013-07-02 16:19:00,81.9,74.8,30.07,West,271,0.0,7.0,79,0.00,,,0.05,VWS V14.01,2013-07-02 20:19:00,
2013-07-02 16:20:00,81.9,74.4,30.07,West,275,2.0,7.0,78,0.00,,,0.05,VWS V14.01,2013-07-02 20:20:00,
2013-07-02 16:24:00,82.1,75.3,30.07,West,275,0.0,2.0,80,0.00,,,0.05,VWS V14.01,2013-07-02 20:24:00,
2013-07-02 16:29:00,82.2,74.7,30.07,West,267,0.0,6.0,78,0.00,,,0.05,VWS V14.01,2013-07-02 20:29:00,
2013-07-02 16:30:00,82.1,74.6,30.07,West,269,1.0,6.0,78,0.00,,,0.05,VWS V14.01,2013-07-02 20:30:00,
2013-07-02 16:34:00,82.1,74.2,30.07,SE,134,0.0,6.0,77,0.00,,,0.05,VWS V14.01,2013-07-02 20:34:00,
2013-07-02 16:39:00,82.0,74.1,30.07,West,279,0.0,6.0,77,0.00,,,0.05,VWS V14.01,2013-07-02 20:39:00,
2013-07-02 16:40:00,82.0,74.1,30.07,West,279,0.0,6.0,77,0.00,,,0.05,VWS V14.01,2013-07-02 20:40:00,
2013-07-02 16:44:00,81.8,73.9,30.07,WNW,293,0.0,6.0,77,0.00,,,0.05,VWS V14.01,2013-07-02 20:44:00,
2013-07-02 16:49:00,81.6,73.3,30.07,WNW,294,3.0,6.0,76,0.00,,,0.05,VWS V14.01,2013-07-02 20:49:00,
2013-07-02 16:50:00,81.6,73.7,30.07,WNW,294,0.0,6.0,77,0.00,,,0.05,VWS V14.01,2013-07-02 20:50:00,
2013-07-02 16:54:00,81.4,73.1,30.07,WNW,292,2.0,4.0,76,0.00,,,0.05,VWS V14.01,2013-07-02 20:54:00,
2013-07-02 16:59:00,81.2,72.9,30.08,WNW,287,0.0,4.0,76,0.00,,,0.05,VWS V14.01,2013-07-02 20:59:00,
2013-07-02 17:00:00,81.2,72.9,30.08,WNW,287,2.0,4.0,76,0.00,,,0.05,VWS V14.01,2013-07-02 21:00:00,
2013-07-02 17:04:00,81.1,72.8,30.08,SW,236,0.0,6.0,76,0.00,,,0.05,VWS V14.01,2013-07-02 21:04:00,
2013-07-02 17:09:00,81.0,73.1,30.08,WNW,293,3.0,6.0,77,0.00,,,0.05,VWS V14.01,2013-07-02 21:09:00,
2013-07-02 17:10:00,81.0,73.1,30.08,WNW,293,0.0,6.0,77,0.00,,,0.05,VWS V14.01,2013-07-02 21:10:00,
2013-07-02 17:14:00,80.9,73.0,30.08,SE,137,2.0,6.0,77,0.00,,,0.05,VWS V14.01,2013-07-02 21:14:00,
2013-07-02 17:19:00,80.7,73.2,30.08,SSW,207,0.0,6.0,78,0.00,,,0.05,VWS V14.01,2013-07-02 21:19:00,
2013-07-02 17:20:00,80.7,73.2,30.08,SSW,207,0.0,6.0,78,0.00,,,0.05,VWS V14.01,2013-07-02 21:20:00,
2013-07-02 17:24:00,80.6,73.1,30.08,SSW,207,0.0,1.0,78,0.00,,,0.05,VWS V14.01,2013-07-02 21:24:00,
2013-07-02 17:29:00,80.7,74.0,30.08,West,271,0.0,3.0,80,0.00,,,0.05,VWS V14.01,2013-07-02 21:29:00,
2013-07-02 17:30:00,80.6,73.5,30.08,West,271,0.0,3.0,79,0.00,,,0.05,VWS V14.01,2013-07-02 21:30:00,
2013-07-02 17:34:00,80.7,73.6,30.08,West,271,0.0,0.0,79,0.00,,,0.05,VWS V14.01,2013-07-02 21:34:00,
2013-07-02 17:39:00,80.7,73.6,30.08,West,273,0.0,2.0,79,0.00,,,0.05,VWS V14.01,2013-07-02 21:39:00,
2013-07-02 17:40:00,80.7,73.6,30.08,West,273,0.0,2.0,79,0.00,,,0.05,VWS V14.01,2013-07-02 21:40:00,
2013-07-02 17:44:00,80.7,73.6,30.08,West,271,0.0,1.0,79,0.00,,,0.05,VWS V14.01,2013-07-02 21:44:00,
2013-07-02 17:49:00,80.7,73.6,30.08,West,261,0.0,3.0,79,0.00,,,0.05,VWS V14.01,2013-07-02 21:49:00,
2013-07-02 17:50:00,80.7,73.6,30.08,SE,141,0.0,3.0,79,0.00,,,0.05,VWS V14.01,2013-07-02 21:50:00,
2013-07-02 17:54:00,80.6,73.1,30.08,SSE,154,0.0,5.0,78,0.00,,,0.05,VWS V14.01,2013-07-02 21:54:00,
2013-07-02 17:59:00,80.5,73.0,30.08,West,265,3.0,5.0,78,0.00,,,0.05,VWS V14.01,2013-07-02 21:59:00,
2013-07-02 18:00:00,80.5,73.0,30.09,West,265,0.0,5.0,78,0.00,,,0.05,VWS V14.01,2013-07-02 22:00:00,
2013-07-02 18:04:00,80.5,73.4,30.09,SSE,154,0.0,4.0,79,0.00,,,0.05,VWS V14.01,2013-07-02 22:04:00,
2013-07-02 18:09:00,80.3,73.2,30.09,West,273,0.0,4.0,79,0.00,,,0.05,VWS V14.01,2013-07-02 22:09:00,
2013-07-02 18:10:00,80.3,73.2,30.09,West,273,0.0,4.0,79,0.00,,,0.05,VWS V14.01,2013-07-02 22:10:00,
2013-07-02 18:14:00,80.2,73.1,30.09,West,273,0.0,1.0,79,0.00,,,0.05,VWS V14.01,2013-07-02 22:14:00,
2013-07-02 18:19:00,80.1,73.0,30.09,NW,305,0.0,2.0,79,0.00,,,0.05,VWS V14.01,2013-07-02 22:19:00,
2013-07-02 18:20:00,80.1,72.6,30.09,NNW,329,0.0,2.0,78,0.00,,,0.05,VWS V14.01,2013-07-02 22:20:00,
2013-07-02 18:24:00,80.0,72.9,30.09,NNW,329,0.0,0.0,79,0.00,,,0.05,VWS V14.01,2013-07-02 22:24:00,
2013-07-02 18:29:00,79.9,73.2,30.09,NNW,329,0.0,0.0,80,0.00,,,0.05,VWS V14.01,2013-07-02 22:29:00,
2013-07-02 18:30:00,79.8,73.1,30.10,NNW,329,0.0,0.0,80,0.00,,,0.05,VWS V14.01,2013-07-02 22:30:00,
2013-07-02 18:34:00,79.8,73.1,30.10,NNW,329,0.0,0.0,80,0.00,,,0.05,VWS V14.01,2013-07-02 22:34:00,
2013-07-02 18:39:00,79.6,73.3,30.10,NNW,329,0.0,1.0,81,0.00,,,0.05,VWS V14.01,2013-07-02 22:39:00,
2013-07-02 18:44:00,79.4,73.1,30.10,NNW,329,0.0,1.0,81,0.00,,,0.05,VWS V14.01,2013-07-02 22:44:00,
2013-07-02 18:49:00,79.2,72.9,30.10,North,351,0.0,1.0,81,0.00,,,0.05,VWS V14.01,2013-07-02 22:49:00,
2013-07-02 18:54:00,79.0,72.7,30.10,East,86,0.0,3.0,81,0.00,,,0.05,VWS V14.01,2013-07-02 22:54:00,
2013-07-02 18:59:00,78.8,72.5,30.10,East,86,0.0,3.0,81,0.00,,,0.05,VWS V14.01,2013-07-02 22:59:00,
2013-07-02 19:04:00,78.6,72.3,30.10,West,269,1.0,4.0,81,0.00,,,0.05,VWS V14.01,2013-07-02 23:04:00,
2013-07-02 19:09:00,78.4,72.4,30.10,West,269,0.0,4.0,82,0.00,,,0.05,VWS V14.01,2013-07-02 23:09:00,
2013-07-02 19:14:00,78.3,72.4,30.10,West,270,1.0,5.0,82,0.00,,,0.05,VWS V14.01,2013-07-02 23:14:00,
2013-07-02 19:19:00,78.2,72.3,30.11,WSW,250,0.0,5.0,82,0.00,,,0.05,VWS V14.01,2013-07-02 23:19:00,
2013-07-02 19:24:00,78.1,72.2,30.11,NW,315,0.0,5.0,82,0.00,,,0.05,VWS V14.01,2013-07-02 23:24:00,
2013-07-02 19:29:00,77.9,72.0,30.11,West,277,0.0,5.0,82,0.00,,,0.05,VWS V14.01,2013-07-02 23:29:00,
2013-07-02 19:34:00,77.8,71.9,30.10,WNW,298,0.0,7.0,82,0.00,,,0.05,VWS V14.01,2013-07-02 23:34:00,
2013-07-02 19:39:00,77.7,71.8,30.10,NW,323,1.0,7.0,82,0.00,,,0.05,VWS V14.01,2013-07-02 23:39:00,
2013-07-02 19:44:00,77.6,71.7,30.10,West,280,0.0,7.0,82,0.00,,,0.05,VWS V14.01,2013-07-02 23:44:00,
2013-07-02 19:49:00,77.6,71.7,30.11,West,280,0.0,7.0,82,0.00,,,0.05,VWS V14.01,2013-07-02 23:49:00,
2013-07-02 19:54:00,77.5,71.6,30.11,West,281,0.0,7.0,82,0.00,,,0.05,VWS V14.01,2013-07-02 23:54:00,
2013-07-02 19:59:00,77.4,71.5,30.11,West,281,0.0,7.0,82,0.00,,,0.05,VWS V14.01,2013-07-02 23:59:00,
2013-07-02 20:00:00,77.4,71.5,30.12,NNW,344,0.0,7.0,82,0.00,,,0.05,VWS V14.01,2013-07-03 00:00:00,
2013-07-02 20:01:00,77.4,71.5,30.12,NNW,344,0.0,0.0,82,0.00,,,0.05,VWS V14.01,2013-07-03 00:01:00,
2013-07-02 20:06:00,77.4,71.8,30.12,NNW,340,0.0,2.0,83,0.00,,,0.05,VWS V14.01,2013-07-03 00:06:00,
2013-07-02 20:10:00,77.3,71.7,30.12,NNW,338,0.0,2.0,83,0.00,,,0.05,VWS V14.01,2013-07-03 00:10:00,
2013-07-02 20:11:00,77.3,71.7,30.12,NNW,340,0.0,2.0,83,0.00,,,0.05,VWS V14.01,2013-07-03 00:11:00,
2013-07-02 20:16:00,77.2,71.6,30.12,NNW,341,1.0,2.0,83,0.00,,,0.05,VWS V14.01,2013-07-03 00:16:00,
2013-07-02 20:20:00,77.1,71.5,30.12,NNW,338,0.0,6.0,83,0.00,,,0.05,VWS V14.01,2013-07-03 00:20:00,
2013-07-02 20:21:00,77.0,71.4,30.12,NE,51,0.0,6.0,83,0.00,,,0.05,VWS V14.01,2013-07-03 00:21:00,
2013-07-02 20:23:00,77.0,71.4,30.12,NE,51,0.0,6.0,83,0.00,,,0.05,VWS V14.01,2013-07-03 00:23:00,
2013-07-02 20:24:00,77.0,71.4,30.12,NE,51,0.0,6.0,83,0.00,,,0.05,VWS V14.01,2013-07-03 00:24:00,
2013-07-02 20:28:00,76.9,71.7,30.12,NE,56,0.0,6.0,84,0.00,,,0.05,VWS V14.01,2013-07-03 00:28:00,
2013-07-02 20:30:00,76.9,71.7,30.12,NW,315,0.0,3.0,84,0.00,,,0.05,VWS V14.01,2013-07-03 00:30:00,
2013-07-02 20:33:00,76.9,71.7,30.12,NW,306,1.0,6.0,84,0.00,,,0.05,VWS V14.01,2013-07-03 00:33:00,
2013-07-02 20:38:00,76.8,71.6,30.12,NW,306,0.0,6.0,84,0.00,,,0.05,VWS V14.01,2013-07-03 00:38:00,
2013-07-02 20:40:00,76.7,71.5,30.12,NW,315,0.0,2.0,84,0.00,,,0.05,VWS V14.01,2013-07-03 00:40:00,
2013-07-02 20:43:00,76.7,71.5,30.12,NW,307,0.0,6.0,84,0.00,,,0.05,VWS V14.01,2013-07-03 00:43:00,
2013-07-02 20:53:00,76.7,71.5,30.12,NW,315,0.0,2.0,84,0.00,,,0.05,VWS V14.01,2013-07-03 00:53:00,
2013-07-02 20:58:00,76.2,71.0,30.12,NW,311,0.0,1.0,84,0.00,,,0.05,VWS V14.01,2013-07-03 00:58:00,
2013-07-02 21:00:00,76.2,71.0,30.13,NW,311,0.0,1.0,84,0.00,,,0.05,VWS V14.01,2013-07-03 01:00:00,
2013-07-02 21:03:00,76.1,70.9,30.13,NW,311,0.0,2.0,84,0.00,,,0.05,VWS V14.01,2013-07-03 01:03:00,
2013-07-02 21:08:00,76.0,70.8,30.13,WNW,298,0.0,4.0,84,0.00,,,0.05,VWS V14.01,2013-07-03 01:08:00,
2013-07-02 21:09:00,75.9,70.7,30.13,WNW,298,0.0,4.0,84,0.00,,,0.05,VWS V14.01,2013-07-03 01:09:00,
2013-07-02 21:14:00,75.8,70.6,30.13,WNW,298,0.0,1.0,84,0.00,,,0.05,VWS V14.01,2013-07-03 01:14:00,
2013-07-02 21:19:00,75.8,70.6,30.13,SSW,198,1.0,5.0,84,0.00,,,0.05,VWS V14.01,2013-07-03 01:19:00,
2013-07-02 21:24:00,75.7,70.5,30.13,SSW,202,0.0,1.0,84,0.00,,,0.05,VWS V14.01,2013-07-03 01:24:00,
2013-07-02 21:26:00,75.7,70.5,30.13,SW,215,0.0,2.0,84,0.00,,,0.05,VWS V14.01,2013-07-03 01:26:00,
2013-07-02 21:31:00,75.6,70.4,30.14,SW,215,0.0,0.0,84,0.00,,,0.05,VWS V14.01,2013-07-03 01:31:00,
2013-07-02 21:36:00,75.5,70.3,30.14,SE,126,0.0,4.0,84,0.00,,,0.05,VWS V14.01,2013-07-03 01:36:00,
2013-07-02 21:41:00,75.4,70.2,30.14,East,84,0.0,0.0,84,0.00,,,0.05,VWS V14.01,2013-07-03 01:41:00,
2013-07-02 21:46:00,75.3,70.1,30.14,East,84,0.0,1.0,84,0.00,,,0.05,VWS V14.01,2013-07-03 01:46:00,
2013-07-02 21:49:00,75.3,70.1,30.14,WNW,293,1.0,5.0,84,0.00,,,0.05,VWS V14.01,2013-07-03 01:49:00,
2013-07-02 21:50:00,75.3,70.1,30.14,WNW,293,0.0,0.0,84,0.00,,,0.05,VWS V14.01,2013-07-03 01:50:00,
2013-07-02 21:56:00,75.2,70.0,30.14,WNW,294,0.0,1.0,84,0.00,,,0.05,VWS V14.01,2013-07-03 01:56:00,
2013-07-02 22:01:00,75.1,69.9,30.15,West,275,1.0,3.0,84,0.00,,,0.05,VWS V14.01,2013-07-03 02:01:00,
2013-07-02 22:06:00,74.9,69.7,30.15,West,278,0.0,5.0,84,0.00,,,0.05,VWS V14.01,2013-07-03 02:06:00,
2013-07-02 22:11:00,74.9,69.7,30.15,West,280,2.0,2.0,84,0.00,,,0.05,VWS V14.01,2013-07-03 02:11:00,
2013-07-02 22:16:00,74.8,69.7,30.15,WNW,282,0.0,3.0,84,0.00,,,0.05,VWS V14.01,2013-07-03 02:16:00,
2013-07-02 22:21:00,74.8,69.7,30.15,WNW,282,0.0,0.0,84,0.00,,,0.05,VWS V14.01,2013-07-03 02:21:00,
2013-07-02 22:26:00,74.6,69.4,30.15,West,279,0.0,5.0,84,0.00,,,0.05,VWS V14.01,2013-07-03 02:26:00,
2013-07-02 22:31:00,74.6,69.4,30.14,West,279,0.0,0.0,84,0.00,,,0.05,VWS V14.01,2013-07-03 02:31:00,
2013-07-02 22:32:00,74.6,69.4,30.14,West,279,0.0,0.0,84,0.00,,,0.05,VWS V14.01,2013-07-03 02:32:00,
2013-07-02 22:37:00,74.5,69.3,30.14,West,279,0.0,2.0,84,0.00,,,0.05,VWS V14.01,2013-07-03 02:37:00,
2013-07-02 22:42:00,74.4,69.3,30.14,WSW,252,0.0,1.0,84,0.00,,,0.05,VWS V14.01,2013-07-03 02:42:00,
2013-07-02 22:46:00,74.4,69.6,30.14,WSW,252,0.0,1.0,85,0.00,,,0.05,VWS V14.01,2013-07-03 02:46:00,
2013-07-02 22:51:00,74.3,69.5,30.14,West,265,0.0,0.0,85,0.00,,,0.05,VWS V14.01,2013-07-03 02:51:00,
2013-07-02 22:57:00,74.3,69.5,30.14,West,265,0.0,0.0,85,0.00,,,0.05,VWS V14.01,2013-07-03 02:57:00,
2013-07-02 23:02:00,74.2,69.4,30.14,West,265,0.0,0.0,85,0.00,,,0.05,VWS V14.01,2013-07-03 03:02:00,
2013-07-02 23:07:00,74.2,69.4,30.14,West,265,0.0,0.0,85,0.00,,,0.05,VWS V14.01,2013-07-03 03:07:00,
2013-07-02 23:12:00,74.2,69.8,30.14,West,265,0.0,0.0,86,0.00,,,0.05,VWS V14.01,2013-07-03 03:12:00,
2013-07-02 23:17:00,74.1,69.7,30.14,West,265,0.0,0.0,86,0.00,,,0.05,VWS V14.01,2013-07-03 03:17:00,
2013-07-02 23:20:00,74.0,69.6,30.14,WSW,241,0.0,1.0,86,0.00,,,0.05,VWS V14.01,2013-07-03 03:20:00,
2013-07-02 23:25:00,74.0,69.6,30.14,WSW,242,0.0,1.0,86,0.00,,,0.05,VWS V14.01,2013-07-03 03:25:00,
2013-07-02 23:31:00,73.9,69.8,30.14,WSW,242,0.0,0.0,87,0.00,,,0.05,VWS V14.01,2013-07-03 03:31:00,
2013-07-02 23:36:00,73.9,69.8,30.14,WSW,242,0.0,0.0,87,0.00,,,0.05,VWS V14.01,2013-07-03 03:36:00,
2013-07-02 23:40:00,73.8,69.7,30.14,ESE,120,0.0,5.0,87,0.00,,,0.05,VWS V14.01,2013-07-03 03:40:00,
2013-07-02 23:45:00,73.7,69.6,30.14,West,278,0.0,3.0,87,0.00,,,0.05,VWS V14.01,2013-07-03 03:45:00,
2013-07-02 23:49:00,73.7,69.6,30.14,West,278,0.0,3.0,87,0.00,,,0.05,VWS V14.01,2013-07-03 03:49:00,
2013-07-02 23:55:00,73.6,69.8,30.14,ESE,103,1.0,2.0,88,0.00,,,0.05,VWS V14.01,2013-07-03 03:55:00,